GFSSGP_925_spd_231.txt.gz
Wind_Speed
9 8 4 2 4 5 3 4 2 2 3 3 10 4 11 2 2 4 6 22 22 31 27 23 21 20 20 20 20 21 22 22 21 21 21 20 18 17 16 15 15 15 16 17 17 17 16 17 16
8 3 2 2 5 3 4 4 2 3 3 2 5 2 1 4 0 1 7 19 17 29 29 25 22 21 21 21 20 19 19 20 19 19 19 19 17 16 15 15 14 13 13 14 15 16 15 15 14
4 2 3 4 3 3 3 2 3 2 1 5 1 4 1 3 4 8 6 18 22 26 28 25 23 21 20 21 20 19 18 18 17 17 17 17 16 15 14 14 14 12 12 12 13 15 14 13 12
1 5 4 4 1 5 5 7 7 6 6 3 1 2 3 0 2 7 19 23 28 30 28 27 25 23 21 20 20 19 18 17 16 16 16 16 15 14 13 12 12 11 10 11 12 14 13 13 12
4 3 4 3 3 5 6 4 14 13 5 5 4 5 3 4 1 16 20 28 35 30 28 27 23 22 21 22 21 19 18 17 16 14 14 14 14 13 12 12 11 10 9 9 11 12 12 12 12
4 3 5 1 4 6 7 6 8 7 3 5 3 5 4 3 12 21 27 30 28 30 29 28 25 23 22 21 22 21 19 18 17 16 14 13 13 12 12 11 11 10 9 9 11 13 13 12 10
5 4 3 2 4 6 4 12 7 7 7 6 6 3 3 5 23 27 28 31 29 29 31 29 28 24 23 22 22 22 20 18 17 15 14 13 12 11 10 10 9 9 8 7 9 12 13 13 11
5 4 3 2 3 5 4 10 5 5 6 4 6 5 5 7 21 22 21 25 28 28 28 29 27 25 24 24 22 22 20 19 17 15 14 13 11 10 9 9 8 8 8 7 8 11 12 12 11
4 4 1 4 3 6 4 9 6 2 7 3 6 5 5 19 19 20 18 20 21 23 23 26 28 28 28 27 26 23 22 21 19 17 15 15 14 13 11 10 9 8 8 8 7 9 10 11 11
4 4 8 6 3 4 8 2 4 3 1 3 2 4 14 19 15 17 15 17 21 23 24 25 27 29 28 28 27 26 25 25 23 21 20 18 16 14 12 12 11 10 9 9 9 9 11 12 12
3 5 5 7 8 5 4 6 1 5 4 4 9 7 10 7 7 9 12 25 31 28 29 28 28 28 29 30 29 28 28 26 25 24 22 20 19 17 15 14 13 13 12 12 12 12 14 15 15
2 7 6 8 6 5 5 3 2 8 5 6 9 17 12 8 6 9 15 22 24 30 32 31 30 27 29 30 31 30 30 28 28 27 24 23 21 19 18 17 16 15 14 14 14 14 14 15 15
4 6 4 10 11 8 5 8 5 3 3 3 8 9 14 9 9 17 20 22 23 29 33 32 31 30 31 27 29 30 30 29 30 27 24 24 22 20 19 18 16 17 16 16 16 15 14 14 15
2 4 7 5 5 5 8 5 3 5 7 9 12 14 13 13 16 18 19 19 25 27 32 34 34 34 33 30 30 31 30 28 27 26 24 24 23 22 21 20 19 20 19 18 16 15 16 16 16
4 5 7 3 1 2 8 3 6 8 0 9 13 15 14 15 16 19 31 28 33 36 32 34 36 36 36 33 29 31 28 26 26 27 24 23 23 23 22 20 19 21 21 20 18 17 16 16 16
5 4 4 5 1 2 3 7 10 9 5 8 9 9 10 11 15 31 30 32 33 32 34 38 38 40 39 35 30 29 28 25 25 24 21 22 23 22 21 21 23 20 20 21 19 17 18 15 18
5 3 4 9 4 2 3 7 13 8 10 9 8 8 10 10 11 24 30 35 37 36 37 38 39 42 42 35 28 29 25 24 25 24 19 22 25 24 19 17 17 14 13 12 12 16 17 14 16
4 3 2 4 5 3 4 8 11 3 8 11 8 7 8 9 13 25 34 32 35 36 38 41 42 41 40 29 25 26 25 26 26 25 23 24 26 27 24 17 18 17 11 9 7 6 4 4 4
3 3 5 8 8 1 5 5 9 6 2 4 7 8 9 12 18 27 32 34 39 38 39 41 44 42 42 32 29 27 29 29 30 29 26 24 27 28 25 21 13 14 17 10 11 9 9 8 5
6 5 10 9 11 6 4 5 5 4 3 3 6 8 9 8 9 12 21 29 43 47 44 42 45 45 45 41 40 32 37 35 33 30 27 25 26 25 21 21 13 11 15 13 8 6 5 3 1
7 6 6 10 2 3 2 6 4 4 3 6 3 5 5 9 12 12 14 24 36 37 45 47 48 48 47 46 35 29 30 26 31 29 26 24 22 21 19 20 15 14 11 9 5 5 4 4 3
3 7 6 3 3 4 3 4 5 3 7 4 10 13 10 11 10 12 12 17 30 46 50 45 45 47 45 44 40 41 36 24 32 31 26 24 22 19 18 17 16 15 13 11 7 5 3 3 3
9 5 3 4 3 3 4 2 6 3 7 9 11 11 11 10 10 15 14 21 32 33 45 48 43 46 45 49 45 43 37 38 36 32 32 28 25 23 20 18 17 16 15 13 10 8 7 6 5
5 1 6 4 4 1 4 2 3 3 1 3 9 11 12 13 15 17 24 24 17 27 32 41 41 44 44 49 45 43 42 39 31 32 34 32 31 28 26 22 20 19 18 17 13 11 10 9 8
6 5 3 4 4 4 3 3 5 4 4 5 6 11 11 12 14 16 19 16 14 3 25 36 38 35 42 46 48 47 45 44 40 39 39 37 35 34 33 29 27 25 22 19 16 13 11 10 9
3 4 5 5 3 4 4 4 4 1 1 3 5 7 9 14 14 15 16 21 23 9 4 13 36 35 42 45 49 47 42 42 39 39 42 42 41 41 37 35 32 29 27 24 21 17 14 11 9
2 3 2 3 2 3 3 1 3 5 13 14 14 14 17 15 13 14 14 21 24 26 13 5 6 18 39 47 44 44 42 37 38 38 42 44 44 42 40 38 36 33 30 26 23 19 15 12 9
5 1 2 3 2 4 4 4 2 8 9 13 16 15 13 15 15 12 10 16 22 26 28 20 10 10 19 23 32 41 42 37 36 36 41 40 42 42 41 40 38 35 33 29 27 22 17 13 10
3 2 4 3 4 5 2 5 5 3 2 6 9 12 14 15 14 11 9 16 17 22 29 30 31 20 8 18 26 29 35 30 28 31 37 37 38 42 44 42 40 38 36 32 29 24 18 15 11
3 4 5 4 2 2 2 5 4 5 4 5 6 6 9 12 14 12 12 18 11 14 17 19 23 25 26 11 6 12 21 28 32 33 32 33 34 33 37 39 38 38 37 32 29 24 18 16 14

GFSSGP_925_spd_234.txt.gz
Wind_Speed
5 3 4 3 4 5 3 4 2 2 2 3 4 3 6 1 5 4 3 18 23 28 28 27 25 24 23 23 24 25 24 24 22 21 20 18 17 16 15 16 16 17 17 15 14 15 14 14 12
3 4 3 2 4 3 4 5 4 3 0 2 1 1 2 3 0 3 8 12 29 32 29 30 27 26 24 24 24 24 23 21 21 21 19 17 16 16 15 15 16 16 16 16 14 14 13 12 10
1 2 3 4 3 4 4 5 6 1 3 2 2 1 2 2 2 10 7 14 28 31 29 28 27 26 25 24 24 23 22 21 20 19 19 17 15 15 15 14 14 14 14 15 15 13 12 10 8
1 5 4 4 3 2 3 7 3 3 2 2 2 3 1 2 1 1 13 22 27 29 29 28 27 25 24 24 23 22 20 20 20 18 17 16 15 14 15 14 13 13 14 15 15 14 13 11 9
5 3 4 3 3 4 5 5 5 5 2 4 5 2 3 2 6 6 19 25 30 31 29 28 27 27 26 24 23 22 20 17 18 17 16 15 14 13 13 12 12 11 12 12 13 13 13 11 8
4 3 5 2 4 5 6 5 4 5 3 0 1 2 4 1 5 13 18 25 30 31 29 26 26 25 26 25 23 21 20 18 17 16 15 13 12 12 11 11 10 10 9 10 11 12 11 10 8
6 4 5 4 2 5 5 6 5 6 3 4 3 4 1 3 12 15 17 22 29 29 29 27 25 25 24 24 23 22 21 19 17 16 15 15 13 12 11 10 10 9 9 10 11 12 11 11 9
5 4 3 3 2 4 6 7 3 5 5 1 6 5 3 4 18 17 18 22 25 26 27 28 26 25 25 23 23 23 21 19 17 16 15 15 14 12 12 10 9 9 9 8 10 13 12 11 9
4 5 1 3 5 4 5 8 4 2 5 3 6 1 2 26 23 21 18 19 21 23 24 26 27 25 25 25 24 23 23 22 20 18 16 16 15 14 13 11 10 9 8 8 9 11 13 12 11
4 4 9 5 3 2 5 3 4 3 2 3 5 6 16 23 22 18 15 18 23 24 25 26 27 27 26 25 25 25 24 24 23 21 20 19 17 16 14 13 12 11 10 9 9 10 11 11 11
3 5 5 5 7 4 4 7 2 6 2 7 8 7 8 16 13 14 16 20 24 30 29 28 28 27 27 26 26 26 27 26 24 23 23 20 19 17 16 15 13 13 12 11 10 10 11 11 11
1 5 5 4 4 3 4 2 6 3 6 5 7 0 7 8 9 15 19 23 25 28 30 29 29 27 26 27 29 29 28 28 27 26 24 23 21 19 17 16 15 14 13 12 11 10 9 10 12
3 3 4 7 8 8 1 8 5 6 6 3 4 8 7 6 8 14 9 19 26 31 31 31 30 29 28 29 30 29 30 29 27 26 25 24 23 21 18 17 16 15 13 12 11 11 11 11 12
5 3 6 5 4 3 5 0 7 7 5 3 5 10 8 9 11 9 17 20 26 28 30 30 30 29 29 32 30 29 30 28 27 27 26 24 23 21 19 19 18 15 13 13 12 11 12 11 11
1 4 6 3 1 3 5 4 4 4 4 5 7 6 5 8 4 16 19 23 25 28 26 31 33 33 32 33 29 28 27 27 27 26 25 24 23 22 21 20 20 18 16 16 16 13 12 12 11
2 4 1 4 0 2 6 6 9 8 6 10 9 7 7 8 14 24 28 27 29 28 32 32 34 36 35 34 31 27 27 27 27 24 23 24 23 23 21 21 18 17 17 15 18 14 12 13 11
6 2 3 5 5 1 4 6 4 5 7 10 9 9 9 9 12 27 32 35 37 37 34 34 33 37 39 35 33 28 25 27 26 23 23 24 22 23 21 19 17 14 15 17 16 14 13 13 12
2 2 3 4 0 2 1 6 6 6 6 7 6 6 7 8 15 30 39 40 39 39 38 35 36 39 37 35 32 27 23 26 25 23 23 23 22 23 21 18 14 13 12 10 10 8 5 7 5
2 3 4 6 5 1 4 4 9 7 2 2 5 5 7 9 8 17 18 21 30 32 33 36 37 39 37 36 34 30 29 29 28 26 24 24 23 21 22 20 16 16 17 10 9 7 8 5 5
5 3 7 8 4 6 2 4 4 4 6 7 9 11 11 10 10 8 17 15 24 30 33 35 41 41 43 42 37 26 31 31 30 26 26 26 24 22 21 20 17 15 16 18 13 9 5 4 4
3 5 5 8 4 2 1 5 5 4 11 11 10 6 9 10 14 16 17 20 21 31 36 40 45 45 45 39 35 29 24 24 26 25 29 28 25 22 20 17 18 16 14 17 14 11 9 8 7
4 8 5 3 4 4 2 3 5 4 9 10 9 10 9 9 8 8 14 21 23 30 40 45 40 42 43 43 41 38 31 25 33 33 33 28 25 21 17 15 19 16 16 14 13 14 11 10 9
8 4 4 3 5 4 1 5 6 2 7 7 9 10 11 11 11 13 15 21 23 20 31 40 40 37 38 45 45 42 32 34 35 35 33 27 24 20 17 16 17 19 19 16 16 14 10 8 8
1 3 6 4 4 2 5 6 3 2 1 3 6 8 10 11 11 11 20 23 24 21 17 28 32 37 37 45 44 43 39 36 35 35 33 30 26 22 20 18 19 19 20 20 16 12 10 9 7
5 5 2 3 1 5 4 3 3 3 2 3 5 8 9 8 10 12 16 22 25 28 12 13 19 23 30 39 41 45 45 42 41 39 35 35 29 27 26 23 23 24 22 20 17 14 13 11 10
3 7 5 6 4 4 2 5 5 5 6 4 4 5 8 13 11 11 12 18 18 26 24 9 7 10 16 23 29 41 44 42 44 42 40 37 34 34 32 29 27 25 23 21 19 17 14 12 11
4 2 4 6 3 2 3 3 1 3 2 4 6 9 11 12 14 12 15 19 23 23 28 24 13 3 5 13 21 29 37 41 44 41 39 37 36 37 36 34 32 30 27 26 23 21 18 15 13
3 5 2 2 4 5 4 3 5 3 6 7 9 8 8 9 13 14 14 20 25 23 20 23 20 16 10 4 15 20 24 33 38 37 39 39 39 40 40 37 37 36 33 30 27 24 19 17 15
6 4 5 3 3 5 3 4 5 5 2 3 6 7 7 7 8 8 15 19 25 23 21 19 19 20 18 11 8 11 19 25 30 33 36 37 39 42 44 41 41 39 37 34 30 27 24 20 17
4 2 3 4 2 1 2 5 5 5 2 3 5 5 6 6 6 6 12 17 18 22 21 22 21 16 14 14 9 11 9 10 22 29 35 36 35 39 42 43 42 43 41 39 34 31 28 25 21

GFSSGP_925_spd_237.txt.gz
Wind_Speed
1 3 5 2 3 2 2 3 3 2 4 1 6 3 4 2 2 1 2 16 21 25 22 28 29 28 28 27 27 27 27 24 22 21 20 19 17 15 15 16 17 16 15 14 14 14 14 14 14
3 7 2 1 2 3 2 2 6 2 2 3 3 1 2 1 1 5 9 14 23 27 23 23 29 28 28 27 27 27 25 24 22 21 19 16 16 16 16 17 16 16 14 13 12 12 12 12 11
5 4 2 2 1 3 2 3 4 2 4 7 7 2 1 0 2 10 7 14 22 23 24 24 29 29 27 27 27 25 23 22 20 19 18 17 16 16 16 15 15 14 14 12 12 9 9 9 9
4 3 3 3 3 3 3 3 4 2 4 6 3 3 1 1 5 4 12 19 24 22 21 27 29 28 28 27 26 24 22 21 21 20 17 16 15 14 14 14 13 12 12 13 11 11 8 8 7
3 1 2 2 3 3 6 5 4 7 3 6 4 1 1 4 1 6 16 18 23 22 20 22 27 27 26 25 25 23 22 20 19 18 18 16 15 15 14 13 12 12 13 12 12 11 10 8 6
2 0 3 5 3 3 5 5 6 9 5 4 4 2 2 4 6 11 17 18 21 24 21 20 25 25 26 25 24 22 21 20 19 18 17 15 14 14 14 13 13 11 11 12 12 11 9 7 5
2 2 3 4 3 2 4 9 3 6 9 5 1 2 3 5 11 13 14 16 19 21 21 20 21 24 24 24 23 22 21 19 19 17 17 16 14 13 12 12 11 10 10 10 11 11 10 8 5
3 2 5 3 4 2 4 6 4 4 7 1 3 3 1 7 16 17 15 17 18 20 20 20 19 20 21 21 22 22 20 19 17 17 15 14 13 13 12 11 11 10 9 10 11 11 11 9 7
2 2 4 4 4 1 4 8 1 2 2 3 5 2 2 16 18 18 17 16 17 17 19 20 21 20 19 18 21 21 20 18 17 16 15 15 12 12 11 11 10 10 9 7 8 10 10 10 8
1 3 5 2 2 6 11 5 10 2 4 5 3 4 10 18 19 19 19 20 19 20 20 20 20 19 19 17 17 19 18 16 17 16 15 13 11 11 10 9 9 9 8 7 7 8 9 9 7
2 2 3 2 7 7 8 8 1 1 4 6 6 7 13 18 18 18 18 21 21 19 19 19 19 19 19 18 18 17 17 16 17 18 16 14 11 10 10 8 8 7 8 7 7 7 8 8 8
3 4 3 3 3 3 5 8 5 4 2 4 3 8 15 16 16 19 19 20 22 22 22 20 20 21 21 19 20 20 18 17 16 16 17 16 14 13 11 9 9 8 8 8 7 7 7 9 9
4 2 4 6 8 7 4 9 4 6 5 5 5 12 14 14 15 14 15 16 19 22 23 22 21 23 23 24 19 19 19 19 17 18 19 15 14 13 12 10 9 9 8 8 8 7 7 7 8
5 3 5 5 6 4 4 1 5 7 5 5 2 9 16 16 16 14 16 18 20 19 21 21 22 23 23 23 22 20 21 20 22 20 19 21 17 15 12 11 10 9 9 8 7 6 6 8 8
1 4 5 6 3 3 7 4 8 5 3 8 8 6 8 14 16 20 19 19 20 22 19 23 23 23 26 26 25 24 23 20 22 22 22 22 20 19 16 12 11 10 9 9 8 9 8 8 10
2 2 5 2 3 1 5 7 8 3 5 11 11 9 9 12 19 19 18 20 19 19 27 26 24 25 27 26 23 21 20 22 22 21 20 22 20 20 18 15 14 12 11 10 10 11 9 9 10
2 3 3 3 1 1 4 5 4 4 7 12 12 11 8 9 10 19 21 21 22 26 23 28 30 28 27 26 22 20 18 19 17 19 19 20 20 19 18 15 13 14 11 10 11 11 10 10 10
4 3 2 4 3 2 3 10 5 8 4 5 5 5 8 10 10 15 16 14 15 13 18 20 26 28 27 24 24 19 18 20 19 21 20 21 20 19 18 14 14 14 10 9 10 11 10 9 8
5 3 6 8 6 4 5 5 8 10 13 12 13 12 12 12 12 16 16 13 17 21 19 18 20 27 27 25 24 23 25 21 20 24 23 21 20 19 18 15 15 16 12 10 10 10 9 7 7
6 6 8 8 5 8 4 2 9 12 13 13 13 14 12 13 15 18 19 15 10 11 20 22 24 26 33 29 29 21 22 20 18 17 18 21 20 20 18 18 16 17 13 13 12 10 7 5 9
7 7 3 4 4 2 5 4 7 9 13 14 15 13 14 14 14 16 19 19 17 13 14 20 26 28 29 28 24 19 15 17 17 18 18 23 21 20 19 18 18 18 15 14 15 13 14 8 7
8 9 5 3 6 6 3 5 5 8 10 13 13 14 15 17 17 17 22 24 21 19 17 20 25 26 32 31 27 30 29 24 26 21 18 19 21 20 20 17 17 18 15 14 14 14 11 10 10
6 7 7 5 7 4 6 5 7 5 6 9 11 12 13 14 15 18 21 25 26 23 18 15 18 26 29 33 36 31 28 27 19 18 21 22 21 21 19 17 17 19 16 14 13 15 15 12 11
4 4 3 2 4 7 10 10 8 6 5 7 8 11 12 13 13 15 20 22 27 28 24 16 9 16 24 27 31 32 31 27 24 21 21 19 18 19 21 18 18 20 19 17 16 17 14 12 9
4 5 7 8 7 9 6 8 5 8 7 7 7 9 11 12 13 13 16 23 26 28 28 22 12 9 15 22 26 28 27 24 26 25 24 22 19 20 24 22 20 20 21 18 18 17 14 13 10
9 10 8 12 11 10 4 7 7 8 8 6 6 6 9 12 13 14 16 18 20 22 23 23 15 7 6 11 19 21 22 25 25 22 23 26 25 26 27 26 22 21 21 20 21 16 14 13 12
5 7 2 3 2 5 5 4 4 7 6 5 6 8 10 11 12 13 16 17 18 19 20 21 20 14 7 6 11 14 15 19 20 18 18 21 30 23 28 29 27 25 24 24 23 19 17 15 13
1 3 3 2 6 10 5 6 4 15 7 3 4 7 8 10 12 13 15 17 16 17 17 19 20 20 17 10 4 7 11 14 20 17 18 22 26 32 24 29 29 29 27 25 23 20 18 17 15
2 2 3 1 3 7 11 4 6 11 6 3 2 4 7 9 10 10 14 16 17 17 18 18 21 21 21 19 15 9 5 7 12 18 24 24 23 24 26 26 30 30 30 29 28 25 21 20 17
7 4 3 5 5 1 3 3 7 7 4 1 1 3 6 7 7 8 10 13 15 17 18 18 18 16 17 17 16 16 14 9 5 7 13 17 20 20 23 20 18 23 27 29 30 28 26 25 22

GFSSGP_925_spd_240.txt.gz
Wind_Speed
2 3 5 7 7 7 4 5 2 4 5 3 1 1 3 4 6 4 8 12 21 23 23 25 25 24 27 28 27 26 25 23 21 20 18 16 16 16 16 17 17 15 14 14 14 14 13 13 14
3 3 6 5 8 9 8 3 3 4 5 4 4 4 1 2 2 6 13 17 22 23 23 21 24 24 26 27 27 26 24 22 21 18 17 16 15 15 17 18 16 14 13 12 12 12 12 11 11
5 5 6 4 7 8 6 4 3 2 3 5 3 3 3 3 2 7 13 20 21 20 22 22 27 25 25 27 27 26 23 21 19 18 16 15 15 15 16 17 16 14 12 12 10 10 9 9 9
7 7 5 9 11 5 3 3 5 3 2 4 3 3 4 3 6 5 19 22 22 20 20 22 27 24 25 26 27 25 23 21 19 18 16 14 14 15 15 14 14 13 12 12 10 7 7 7 7
9 4 7 12 8 2 4 4 5 7 2 6 7 4 2 5 7 13 17 21 22 21 19 23 26 25 25 26 26 24 22 20 19 17 16 15 15 14 14 13 13 12 10 9 11 9 7 6 5
7 5 7 11 12 6 3 5 9 9 8 5 8 4 4 9 11 14 16 20 20 21 20 22 25 25 25 24 23 23 21 19 18 16 15 14 13 13 12 12 11 11 12 11 9 9 8 6 4
13 8 10 7 10 7 2 5 4 5 8 8 3 4 5 11 12 15 16 19 20 21 21 20 21 23 24 23 22 20 19 19 18 17 15 14 13 12 11 10 9 9 9 11 10 9 8 7 5
7 7 7 10 9 6 2 3 3 6 6 6 3 1 7 12 15 16 18 18 20 20 20 20 21 20 19 19 21 20 19 18 17 16 15 13 12 11 10 9 8 8 8 9 10 10 9 7 6
4 7 10 12 8 6 1 3 1 1 5 9 4 1 5 16 18 18 19 19 20 19 19 19 20 21 20 18 19 20 18 17 16 14 14 13 9 9 9 9 10 8 7 7 9 10 10 9 7
9 9 9 3 0 3 5 4 5 5 7 7 8 5 7 17 20 19 19 20 22 21 20 20 20 19 19 18 18 17 16 15 14 13 12 11 9 9 9 9 10 9 9 8 8 8 10 9 10
8 10 3 6 4 6 6 6 3 5 9 7 10 8 10 17 18 18 19 21 23 22 21 22 20 20 20 18 18 18 17 16 16 15 13 12 10 9 10 8 8 8 9 7 7 7 9 10 9
9 6 6 2 4 6 7 7 6 6 2 3 2 1 11 15 15 17 17 19 21 22 22 21 21 20 21 19 19 18 18 18 17 16 16 13 11 11 10 9 9 8 9 9 9 10 9 9 10
11 5 6 7 7 8 9 9 5 9 5 1 1 5 9 13 15 15 13 15 18 20 22 21 21 21 21 20 19 19 19 18 16 16 17 15 14 12 11 9 9 9 9 9 10 10 9 9 10
5 4 6 7 10 6 9 8 4 10 7 5 2 7 8 12 16 13 13 15 17 19 20 20 21 20 20 21 19 19 18 18 18 17 16 18 15 13 11 10 9 10 10 10 10 9 8 10 10
5 10 11 12 13 10 8 11 10 9 4 10 7 7 7 11 17 17 15 17 18 19 20 21 21 21 21 21 20 19 17 17 17 16 16 16 16 13 11 11 11 11 11 10 10 9 9 9 10
10 7 11 12 12 8 9 15 15 10 9 12 11 9 8 12 17 15 14 14 15 16 17 17 19 21 22 20 19 18 17 17 17 16 15 16 15 14 12 12 11 11 11 11 12 12 11 11 10
11 11 9 8 10 7 14 13 8 5 7 12 12 12 10 5 8 6 11 12 13 15 15 17 19 19 19 18 18 18 17 17 17 16 15 15 16 16 15 14 12 12 12 12 12 13 13 12 12
6 12 8 11 12 10 14 13 7 1 5 4 5 8 4 2 4 3 5 8 11 13 15 16 18 20 19 18 18 18 19 19 18 17 17 16 16 16 16 14 13 13 14 13 12 12 12 14 13
9 7 9 8 8 9 12 12 8 3 5 6 5 6 5 6 7 7 7 5 4 11 14 16 19 20 21 21 21 21 24 22 21 18 17 17 16 17 16 14 13 14 15 15 11 12 13 11 12
9 11 12 10 9 11 12 10 6 6 7 7 8 9 9 9 11 14 15 14 8 4 8 14 19 20 22 22 22 22 21 22 21 19 18 18 18 18 17 16 15 14 14 14 13 13 11 12 11
13 12 9 11 10 14 10 12 11 8 9 9 9 9 11 11 12 13 17 18 16 13 8 8 14 18 22 22 20 19 19 19 21 23 20 20 19 18 17 16 15 14 14 15 15 15 14 12 12
14 12 11 8 12 14 17 12 20 14 9 7 8 7 9 10 11 12 14 18 19 18 15 13 11 15 19 20 23 25 25 24 26 23 20 19 20 19 18 16 15 15 14 15 15 15 15 13 11
14 5 11 11 12 15 14 12 13 16 14 9 8 8 8 9 10 11 13 16 18 20 20 18 15 9 14 19 23 24 26 26 23 23 19 19 19 20 19 18 16 15 16 16 15 15 16 14 13
6 8 11 11 12 14 19 15 14 18 16 10 8 7 8 8 9 10 13 14 17 20 22 22 21 15 9 14 21 24 26 25 23 21 20 20 19 20 19 18 17 16 16 16 16 14 14 15 13
12 14 12 14 14 15 18 18 8 10 11 10 7 7 8 8 10 12 13 16 18 20 22 22 24 21 15 9 15 21 25 26 24 21 21 20 22 21 21 21 19 18 19 17 17 16 16 16 14
19 19 15 20 15 16 8 14 7 11 10 8 7 7 7 8 9 11 14 17 18 18 19 20 21 22 20 15 11 14 19 23 25 25 24 22 23 23 21 21 20 20 20 20 20 19 18 17 16
19 13 14 18 20 10 10 3 6 11 11 8 7 5 6 7 8 10 12 15 16 16 16 17 17 17 19 19 16 10 11 15 21 20 20 23 20 22 22 21 22 21 22 23 22 21 20 17 17
10 5 9 11 20 19 14 16 9 19 15 9 6 4 5 6 8 9 11 13 15 14 14 15 15 15 16 16 16 16 14 12 14 17 18 17 18 21 21 22 23 23 23 24 24 23 21 21 19
12 8 6 8 7 8 13 10 9 16 14 10 5 3 4 6 7 8 10 12 14 14 15 15 15 15 14 15 15 15 15 15 15 14 15 19 19 19 23 23 24 25 26 26 28 27 25 25 22
17 19 13 7 9 8 9 7 6 11 10 5 2 1 4 5 6 6 8 10 13 15 16 15 15 16 15 14 12 13 13 13 14 15 14 11 15 20 23 25 24 25 27 27 28 30 29 29 27

GFSSGP_925_spd_246.txt.gz
Wind_Speed
12 13 11 15 5 8 16 17 4 10 17 12 16 12 12 15 12 5 17 17 26 25 25 19 20 24 23 18 17 19 18 16 16 14 13 13 14 15 16 16 15 15 15 15 15 15 15 16 18
10 17 13 6 8 12 10 23 17 21 8 14 11 7 12 13 15 14 15 24 26 23 25 20 21 25 23 19 17 19 19 17 15 14 13 13 13 15 15 15 14 13 13 13 13 13 13 15 18
11 13 7 5 12 13 6 24 12 33 8 4 9 12 5 4 8 13 21 27 27 22 21 22 21 24 22 19 18 19 18 16 15 14 13 13 13 14 14 14 12 11 11 11 11 11 11 12 14
9 8 6 9 16 14 15 6 9 1 9 5 8 11 7 4 4 15 23 27 23 23 20 24 21 22 21 20 18 18 17 16 14 13 12 13 13 14 14 13 11 10 9 9 8 8 8 8 9
14 7 11 16 19 18 17 4 4 8 9 14 6 9 8 6 10 18 25 24 25 25 21 25 22 22 21 20 19 18 17 15 14 13 12 12 13 13 13 11 11 8 8 6 6 5 4 5 5
7 7 12 13 18 14 4 4 5 7 9 12 9 12 9 15 18 20 22 20 23 27 22 25 22 21 21 20 19 18 17 15 14 13 12 12 12 12 11 10 9 8 7 5 5 4 3 2 2
13 11 16 18 20 21 4 9 6 10 8 9 8 15 10 15 20 20 19 20 25 25 22 21 23 20 19 20 19 18 16 14 14 13 12 11 11 11 10 10 9 9 10 6 6 6 5 4 2
11 12 19 18 17 18 9 6 7 7 11 3 5 11 3 12 18 20 19 18 22 24 21 19 19 20 20 20 20 18 16 15 14 13 12 11 11 10 10 9 9 9 10 10 7 7 8 7 6
17 11 14 19 20 15 9 4 9 3 10 5 8 18 21 25 19 19 22 21 21 23 24 21 19 19 19 18 21 18 17 16 14 13 12 12 9 9 8 7 8 6 9 10 10 9 9 10 8
13 12 18 22 18 18 4 6 10 3 8 13 9 31 37 27 21 19 17 18 21 23 23 25 23 23 23 19 18 18 18 18 16 14 14 12 13 7 11 11 10 8 8 8 10 11 10 11 9
15 16 21 20 13 13 15 7 7 10 12 14 15 22 20 22 19 20 23 24 22 20 23 25 27 25 25 24 20 20 17 16 15 14 15 14 12 17 10 13 13 11 11 9 9 11 14 11 12
17 19 18 22 13 11 12 12 14 10 15 7 21 17 18 14 15 18 19 22 35 24 22 26 24 27 24 22 23 20 22 18 19 19 19 13 16 15 14 15 12 9 10 10 18 15 12 12 17
15 18 17 16 12 16 12 16 17 12 19 11 21 24 21 10 13 14 11 23 24 26 24 24 24 25 23 16 20 21 23 22 23 21 22 16 16 13 14 15 16 16 20 12 16 16 12 11 10
14 12 16 20 13 16 16 18 15 15 21 13 3 6 11 13 11 11 8 16 20 24 23 19 25 21 21 16 14 18 18 20 20 21 23 20 19 17 15 14 10 11 8 9 10 12 13 13 11
15 17 15 17 15 17 15 20 19 18 14 19 7 5 11 11 14 12 9 4 15 23 24 20 22 24 23 20 15 10 17 17 14 16 19 22 20 17 18 14 16 14 12 11 10 12 8 11 14
12 15 17 17 21 18 16 20 18 17 12 20 11 10 10 10 11 15 15 13 8 21 25 23 20 24 23 19 18 16 14 13 18 20 18 21 19 22 15 19 16 15 13 11 13 14 15 17 13
14 14 19 20 20 19 19 20 18 15 16 16 11 10 10 9 9 18 12 11 14 11 20 19 16 20 23 22 18 20 18 20 15 18 19 22 22 19 21 20 18 17 14 13 14 15 16 16 12
16 17 15 17 16 11 14 17 16 18 19 18 15 10 11 9 15 15 13 15 7 15 15 17 15 15 22 20 21 16 20 18 20 22 22 22 25 26 23 23 19 17 17 15 17 17 16 13 11
17 20 18 20 16 12 14 15 19 15 19 11 7 9 12 6 12 15 12 12 11 6 7 15 19 18 15 20 21 20 19 21 21 22 22 21 24 23 24 23 20 18 17 19 18 21 18 16 14
19 17 17 18 22 19 17 14 18 18 11 9 12 7 6 11 11 11 10 11 10 6 2 3 7 12 20 20 20 20 22 22 23 23 24 25 25 24 25 26 22 24 22 22 20 19 14 13 14
18 16 17 21 22 20 18 20 17 23 10 9 3 7 7 5 12 8 9 10 12 11 7 2 5 8 9 18 19 21 21 16 19 25 25 27 28 26 25 25 27 20 25 20 23 20 16 16 18
18 20 18 21 19 15 18 15 18 20 15 13 12 9 9 12 13 11 10 13 13 17 13 10 5 4 7 10 14 19 16 18 19 20 22 27 31 29 29 29 27 30 23 25 16 20 20 18 16
21 16 19 20 19 17 24 14 14 17 21 19 16 16 16 14 15 14 12 12 16 18 16 16 16 14 7 7 10 10 16 19 16 19 23 25 33 35 34 33 32 29 28 24 22 21 21 19 19
17 20 18 18 17 17 20 18 18 18 20 22 20 18 16 14 14 15 19 14 14 15 18 16 17 18 19 19 13 6 11 14 16 20 22 19 29 36 38 36 33 32 30 29 22 24 22 23 19
17 18 12 16 15 16 19 20 19 17 17 26 20 16 16 16 15 13 14 16 15 14 13 16 15 17 18 19 19 20 16 10 13 17 20 27 26 30 38 46 41 32 30 27 27 23 23 23 24
20 14 5 9 16 16 18 19 3 15 16 25 25 18 13 13 12 12 9 11 14 15 13 13 13 14 16 17 17 18 18 18 16 18 21 23 27 31 25 27 16 5 22 22 24 23 27 25 25
10 13 14 6 19 16 19 18 1 6 2 12 14 19 13 13 9 11 10 10 11 13 14 13 12 12 13 13 14 16 16 17 17 20 20 20 23 28 23 5 22 34 41 32 26 26 30 28 28
10 8 8 3 3 6 13 10 7 20 9 18 12 5 11 11 10 7 13 7 11 9 15 14 12 11 13 13 15 13 12 14 16 18 22 23 24 27 28 25 21 36 54 49 33 29 31 31 31
10 6 3 3 5 4 7 4 13 21 16 15 18 4 5 4 6 9 8 9 8 9 11 12 11 9 11 11 13 14 17 18 17 18 20 23 25 22 27 20 17 28 53 46 34 33 30 36 29
2 4 1 4 2 3 2 2 4 11 14 14 13 15 17 10 6 9 8 5 7 7 9 9 10 11 11 10 11 13 13 17 17 20 23 25 27 25 20 21 23 16 18 30 32 42 30 32 32